Regional Weather Roundup
Issued by NWS

Home | Current Version | Previous Version | Graphics & Text | Print | Product List | Glossary On
Versions: 1 2 3 4 5 6 7 8 9 10 11 12 13 14 15 16 17 18 19 20 21 22 23 24 25 26 27 28 29 30 31 32 33 34 35 36 37 38 39 40 41 42 43 44 45 46 47 48 49 50
366
ASUS45 KCYS 252310
RWRWY

WYOMING REGIONAL WEATHER ROUNDUP
NATIONAL WEATHER SERVICE CHEYENNE WY
500 PM MDT SAT MAR 25 2017

NOTE:  "FAIR" INDICATES FEW OR NO CLOUDS BELOW 12,000 FEET
WITH NO SIGNIFICANT WEATHER AND/OR OBSTRUCTIONS TO VISIBILITY.

WYZ001-260000-
YELLOWSTONE NATIONAL PARK

CITY           SKY/WX    TMP DP  RH WIND       PRES   REMARKS
LK YELLOWSTONE   N/A     36  24  62 MISG      29.94F
W YELLOWSTONE  NOT AVBL

$$
WYZ002>013-054>058-071-098>099-260000-
NORTHERN WYOMING

CITY           SKY/WX    TMP DP  RH WIND       PRES   REMARKS
JACKSON        NOT AVBL
CODY           FAIR      46  30  53 NW12      29.92S
GREYBULL       LGT RAIN  49  41  74 E7        29.87S
WORLAND        CLOUDY    50  38  63 N10       29.86R
SHERIDAN       LGT RAIN  46  41  82 W10       29.92S
BUFFALO        CLOUDY    47  35  63 N13       29.91S
GILLETTE       PTSUNNY   56  34  43 N15       29.86S
HULETT         FAIR      59  32  36 N14G20    29.86F
NEWCASTLE      FAIR      64  25  22 S7        29.82S

$$
WYZ014>020-022>026-101>103-260000-
CENTRAL WYOMING

CITY           SKY/WX    TMP DP  RH WIND       PRES   REMARKS
BIG PINEY      LGT SNOW  35  34  96 N10       29.93S FOG     WCI  27
PINEDALE       MIX PCPN  34  32  93 NW7       29.93S WCI  28
DUBOIS         LGT SNOW  34  32  93 NW10      29.90S WCI  26
LANDER         PTSUNNY   50  35  56 SE8       29.84F
RIVERTON       FAIR      50  34  54 CALM      29.85F
CASPER         FAIR      56  30  37 N6        29.84F
DOUGLAS        PTSUNNY   59  27  29 CALM      29.84F

$$
WYZ021-027>030-104>119-260000-
SOUTHERN WYOMING

CITY           SKY/WX    TMP DP  RH WIND       PRES   REMARKS
EVANSTON       LGT SNOW  35  32  88 NW13      29.93S FOG     WCI  26
FORT BRIDGER   CLOUDY    41  39  93 W14G20    29.95S
ROCK SPRINGS   CLOUDY    47  35  63 N14       29.87
DIXON            N/A     55  25  31 NW12G21   29.90R
RAWLINS        CLOUDY    53  23  31 W10       29.87F
SARATOGA       CLOUDY    52  21  30 NW3       29.88F
LARAMIE        FAIR      56  13  18 W3        29.86F
CHEYENNE       FAIR      56  16  20 S14       29.88F
TORRINGTON     FAIR      65  20  17 SE3       29.81F
PINE BLUFFS    FAIR      61  23  23 S6        29.87F

$$




USA.gov is the U.S. government's official web portal to all federal, state and local government web resources and services.